Preview of NWS' New Version of Forecast
This preview is not operational and should not be used for support decisions.
Latest weather observations around

Bangor, Bangor International Airport (KBGR)

Using English Units (Switch to International System of Units)
Date/ Time (EST) Wind (mph) Vis. (mi) Weather Sky Cond. Temp (°F) Rel. Humidity Wind Chill (°F) Heat Index (°F) Pressure Precip. (in)
Air Dwpt 6 hour Altimeter (inHg) Sea level (inHg) 1 hr 3 hr 6 hr
Max Min
Feb 22 06:53 NW 10 10 Mostly Cloudy BKN180 BKN250 29 18     63% 20   30.63 30.63      
Feb 22 05:53 NW 13 10 Mostly Cloudy BKN180 29 17     61% 19   30.6 30.6      
Feb 22 04:53 NW 13 10 Clear CLR 29 17     61% 19   30.57 30.57      
Feb 22 03:53   10 Clear CLR 31 17     56%     30.54 30.55      
Feb 22 02:53 NW 11 10 Clear CLR 33 18     53% 24   30.52 30.53      
Feb 22 01:53   10 Clear CLR 34 19     54%     30.5 30.5      
Feb 22 00:53   10 Mostly Clear FEW180 36 22     56%     30.46 30.46      
Feb 21 23:53   10 Clear CLR 38 24     57%     30.41 30.41      
Feb 21 22:53   10 Clear CLR 39 25     57%     30.35 30.35      
Feb 21 21:53 NW 17 10 Mostly Clear FEW100 42 26     53% 34   30.3 30.3      
Feb 21 20:53 NW 11 10 Mostly Cloudy BKN095 49 35     59% 44   30.24 30.24      
Feb 21 19:53 WNW 8 10 Cloudy OVC090 52 39     61%     30.18 30.19      
Feb 21 18:53   10 Cloudy SCT020 OVC075 54 44     69%     30.15 30.15      
Notice The following observation data may not be complete
Feb 21 17:53 WNW 13 10 Cloudy OVC055   48      %     30.08 30.08      
Feb 21 16:53 WSW 6 10 Cloudy SCT041 OVC060 54 47     77%     30.04 30.04      
Feb 21 15:53 S 9 10 Mostly Cloudy SCT050 BKN130 47 45     93% 43   29.95 29.95      
Feb 21 14:53 SSE 9 10 Mostly Cloudy SCT030 BKN090 48 44     86% 44   29.96 29.96      
Feb 21 13:53 S 10 10 Partly Cloudy FEW030 SCT100 49 45     86% 45   29.97 29.97      
Feb 21 12:53 SSE 9 10 Mostly Cloudy FEW003 BKN030 44 43     96% 39   30 30      
Feb 21 12:39 S 8 10 Mostly Cloudy SCT003 BKN020 43 43     100% 38   30.01        
Feb 21 12:16 S 6 4 Fog/Mist OVC002 43 43     100% 39   30.03        
Feb 21 12:00 SSW 8 2 Fog/Mist OVC002 42 42     100% 37   30.03        
Feb 21 11:53 SSW 10 1 Fog/Mist OVC002 42 42     100% 36   30.03 30.03      
Feb 21 11:00 S 10 0.5 Fog/Mist OVC002 41 41     100% 35   30.06        
Feb 21 10:53 S 8 0.25 Fog/Mist OVC002 41 41     100% 36   30.07 30.07      
Feb 21 10:15 S 8 0.12 Fog OVC002 40 40     100% 34   30.09        
Feb 21 09:53 S 8 0.12 Fog OVC002 39 39     100% 33   30.1 30.1      
Feb 21 08:53 S 7 0.12 Fog VV002 37 37     100% 32   30.11 30.12      
Feb 21 07:53 S 6 0.12 Fog VV002 37 37     100% 32   30.13 30.14      
Feb 21 06:53 S 5 0.12 Fog VV003 36 36     100% 32   30.15 30.16      
Feb 21 05:53 S 5 0.12 Fog VV002 36 36     100% 32   30.16 30.16      
Feb 21 04:53 S 3 0.25 Fog VV002 34 34     100% 31   30.18 30.18      
Feb 21 03:53 SSW 3 0.25 Fog VV002 36 36     100% 33   30.21 30.22      
Feb 21 02:53 Calm 0.25 Fog VV002 34 34     100%     30.22 30.22      
Feb 21 02:40 Calm 0.25 Fog VV002 35 35     100%     30.22        
Feb 21 02:32 Calm 0.5 Fog VV002 34 34     100%     30.22        
Feb 21 01:53 Calm 0.5 Fog/Mist OVC003 34 34     100%     30.25 30.25      
Feb 21 01:35 Calm 0.5 Fog OVC004 35 35     100%     30.25        
Feb 21 00:53 Calm 0.5 Fog VV008 35 35     100%     30.25 30.26     0
Feb 21 00:23 Calm 0.5 Fog FEW003 OVC007 36 36     100%     30.27        
Feb 21 00:14 Calm 0.5 Fog SCT003 OVC007 35 35     100%     30.27        
Feb 21 00:00 S 3 0.5 Fog/Mist VV003 37 36     96% 35   30.27        
Feb 20 23:53 Calm 0.5 Fog VV005 35 35     100%     30.27 30.28 0    
Feb 20 23:48 Calm 0.5 Light Rain and Fog VV005 36 36     100%     30.27   0    
Feb 20 23:13 Calm 2 Light Drizzle and Fog/Mist OVC004 37 36     96%     30.27   0    
Feb 20 22:53 Calm 2 Light Drizzle and Fog/Mist OVC005 36 36     100%     30.27 30.28 0    
Feb 20 22:34 Calm 2 Fog/Mist OVC005 36 36     100%     30.27        
Feb 20 22:23 NE 3 2 Fog/Mist OVC004 38 38     100% 36   30.27        
Feb 20 21:58 Calm 1.25 Fog/Mist OVC002 37 37     100%     30.28        
Feb 20 21:53 Calm 0.75 Fog/Mist OVC002 38 38     100%     30.27 30.28 0 0  
Feb 20 20:53 ENE 3 0.5 Light Drizzle and Fog OVC002 38 38     100% 36   30.28 30.29 0    
Feb 20 19:53 E 3 0.5 Fog OVC003 38 38     100% 36   30.29 30.3 0    
Feb 20 19:06 Calm 0.5 Fog OVC004 37 37     100%     30.29   0    
Feb 20 18:53 NE 3 0.5 Light Drizzle and Fog OVC005 37 37     100% 35   30.29 30.29 0   0
Feb 20 17:53 Calm 0.5 Light Drizzle and Fog VV004 36 36     100%     30.27 30.28 0    
Feb 20 17:16 Calm 0.5 Light Drizzle and Fog VV006 36 36     100%     30.26   0    
Feb 20 16:53 Calm 0.5 Light Drizzle and Fog OVC003 39 39     100%     30.26 30.27 0    
Feb 20 16:46 Calm 0.5 Light Drizzle and Fog OVC003 37 37     100%     30.26   0    
Feb 20 16:37 Calm 0.5 Light Drizzle and Fog OVC005 36 36     100%     30.26   0    
Feb 20 16:26 Calm 0.25 Light Drizzle and Fog OVC006 36 36     100%     30.26   0    
Feb 20 15:53 Calm 0.25 Fog VV007 35 35     100%     30.26 30.26 0 0  
Feb 20 15:41 Calm 0.25 Fog OVC007 36 36     100%     30.26   0    
Feb 20 15:04 Calm 0.25 Light Rain and Fog OVC005 38 38     100%     30.26   0    
Feb 20 14:53 Calm 0.25 Light Rain and Fog OVC005 38 38     100%     30.25 30.25 0    
Feb 20 14:50 Calm 0.25 Light Rain and Fog OVC005 39 39     100%     30.25   0    
Feb 20 14:41 Calm 1.5 Light Rain and Fog/Mist OVC005 38 38     100%     30.26   0    
Feb 20 14:23 Calm 2.5 Light Rain and Fog/Mist BKN005 OVC009 38 38     100%     30.26   0    
Feb 20 13:53 NNW 5 5 Light Rain and Fog/Mist OVC009 38 38     100% 34   30.25 30.25 0    
Feb 20 12:53 Calm 6 Light Rain and Fog/Mist OVC006 39 39     100%     30.25 30.26 0   0
Feb 20 11:53 Calm 8 Light Rain OVC006 40 39     97%     30.27 30.27 0    
Feb 20 11:09 NE 3 8 Light Rain BKN008 BKN011 OVC040 40 39     97% 38   30.28   0    
Feb 20 10:53 NNE 6 10 Cloudy FEW008 BKN040 OVC090 39 38     96% 35   30.28 30.28 0    
Feb 20 09:53 N 5 6 Light Rain and Fog/Mist OVC029 38 38     100% 34   30.28 30.29 0 0  
Feb 20 08:53 NNE 3 3 Fog/Mist OVC028 37 37     100% 35   30.28 30.29 0    
Feb 20 08:29 N 5 2 Fog OVC031 36 36     100% 32   30.29   0    
Feb 20 07:53 Calm 1.75 Light Rain and Fog/Mist FEW002 OVC032 36 36     100%     30.27 30.28 0    
Feb 20 07:51 Calm 1.75 Light Rain and Fog/Mist FEW002 OVC030 36 36     100%     30.28   0    
Feb 20 07:28 Calm 1.75 Light Rain and Fog/Mist BKN002 OVC030 36 36     100%     30.27   0    
Feb 20 07:12 Calm 0.5 Light Rain and Fog/Mist BKN002 OVC030 36 36     100%     30.26   0    
Feb 20 07:02 NNE 3 1 Light Rain and Fog/Mist SCT002 BKN030 OVC039 36 36     100% 33   30.26   0    
Feb 20 06:53 N 5 0.5 Light Rain and Fog VV002 35 35     100% 31   30.26 30.26 0   0
Feb 20 05:53 NNW 3 0.75 Light Rain and Fog/Mist BKN003 BKN024 OVC042 37 37     100% 35   30.24 30.25 0    
Feb 20 05:24 Calm 0.5 Light Rain and Fog BKN003 OVC040 37 37     100%     30.24   0    
Feb 20 04:53 NNE 5 1 Light Rain and Fog/Mist OVC039 36 36     100% 32   30.24 30.25 0    
Feb 20 04:27 NNW 6 1 Light Rain and Fog/Mist OVC039 36 35     96% 31   30.25   0    
Feb 20 03:53 Calm 0.75 Light Rain and Fog/Mist SCT043 OVC050 34 34     100%     30.23 30.24 0 0  
Feb 20 03:20 Calm 0.5 Light Rain and Fog SCT042 OVC055 36 36     100%     30.22   0    
Feb 20 02:53 Calm 6 Light Rain and Fog/Mist OVC043 35 35     100%     30.22 30.22 0    
Feb 20 01:53 SSE 6 4 Light Rain and Fog/Mist BKN050 OVC075 37 36     96% 32   30.22 30.22 0    
Feb 20 00:53 Calm 4 Light Rain and Fog/Mist FEW060 OVC090 37 37     100%     30.24 30.24 0   0
Feb 19 23:53 SSE 3 9 Cloudy FEW037 SCT049 OVC110 37 36     96% 35   30.24 30.24      
Feb 19 22:53 S 5 8 Cloudy BKN041 OVC049 38 38     100% 34   30.25 30.25 0    
Feb 19 21:53 S 3 7 Light Drizzle OVC038 38 37     97% 36   30.24 30.25 0 0  
Feb 19 20:53 S 7 10 Light Rain BKN044 OVC075 38 37     97% 33   30.26 30.27 0    
Feb 19 19:53 S 9 7 Light Rain BKN050 OVC070 39 36     89% 33   30.28 30.28 0    
Feb 19 18:53 S 8 10 Cloudy BKN070 BKN110 OVC250 38 35     89% 32   30.3 30.31      
Feb 19 17:53 S 11 10 Cloudy FEW024 SCT110 OVC250 38 34     85% 30   30.31 30.32      
Feb 19 16:53 S 15 10 Cloudy SCT030 BKN120 OVC250 39 33     79% 31   30.33 30.34      
Feb 19 15:53 S 16 10 Mostly Cloudy FEW035 BKN250 40 32     73% 31   30.33 30.34      
Feb 19 14:53 S 16 10 Partly Cloudy FEW038 SCT200 40 30     67% 31   30.34 30.35      
Feb 19 13:53   10 Partly Cloudy FEW035 SCT200 41 30     65%     30.35 30.35      
Feb 19 12:53 S 18 10 Partly Cloudy SCT033 41 30     65% 32   30.39 30.4      
Feb 19 11:53 S 15 10 Partly Cloudy SCT033 SCT055 40 28     62% 32   30.43 30.44      
Feb 19 10:53   10 Partly Cloudy SCT050 38 27     64%     30.5 30.5      
Feb 19 09:53 S 7 10 Partly Cloudy FEW038 SCT085 SCT180 33 25     72% 27   30.53 30.54      
Feb 19 08:53 SSE 3 10 Partly Cloudy FEW033 SCT070 SCT150 20 19     96% 15   30.52 30.53      
Feb 19 07:53 Calm 10 Partly Cloudy FEW070 SCT150 13 12     96%     30.53 30.55      
Jun 11 12:53 SSW 15 10 Mostly Cloudy SCT150 BKN250 87 59     39%   86 29.75 29.74      
Jun 10 22:53 SSW 6 10 Clear   58 51     78%     29.92 29.91      
Jun 10 20:53 S 7 10 Mostly Cloudy FEW060 BKN250 61 51     70%     29.94 29.93      
Jun 10 17:53   10 Partly Cloudy FEW060 SCT250 68 48     49%     29.91 29.9      
Jun 09 21:53 W 7 10 Mostly Cloudy BKN120 57 55     93%     29.63 29.62      
Jun 09 17:59 3 10 Thunderstorms and Rain FEW055 SCT070 OVC090 55 53     93%     29.51   0    
Jun 09 17:53 6 10 Light Rain SCT070 OVC090 55 53     93%     29.51 29.5 0    
Jun 08 18:53   10 Mostly Cloudy BKN250 68 43     40%     29.89 29.88      
Jun 08 16:53   10 Mostly Cloudy SCT150 BKN250 76 50     40%   75 29.87 29.87      
Jun 06 08:45   10 Mostly Cloudy SCT015 BKN080 BKN150 50 41     71%     29.98        
Jun 05 18:53 SSE 6 10 Cloudy FEW060 OVC100 57 48     72%     29.99 29.99